User: anonymous   Login
Location: Chandrammap?lem
(16.9200°N, 81.0051°E)
Time: 16:28:23
(UTC+00:00)
Language:

ATLAS 2AS CENTAUR R/B - Orbit

View from above orbital plane
View from above orbital plane
View from above satellite
View from above satellite

Ground track
Ground track

The orbit data is extracted from the following two-line orbital elements,

1 28096U 03054B   24201.83974181  .00000002  00000-0  15588-3 0  9999
2 28096  63.6808 355.6257 0115332 167.3683 193.0278 13.40979540  8909
Epoch (UTC): 19 July 2024 20:09:13
Eccentricity: 0.0115332
inclination: 63.6808°
perigee height: 1019 km
apogee height: 1192 km
right ascension of ascending node: 355.6257°
argument of perigee: 167.3683°
revolutions per day: 13.40979540
mean anomaly at epoch: 193.0278°
orbit number at epoch: 890

The dashed part of the orbit path shows where the satellite is in the earth's shadow,  

DLR